Showing default

EUTE 21A (EUTE W3), 25673

Orbit data source: Space-Track

EUTE 21A (EUTE W3), 25673 is a payload satellite owned by Eutelsat (FR) in GEO that was launched on Mon, 12 Apr 1999 UTC via an ATLAS IIAS launch vehicle from the Air Force Eastern Test Range (AFETR). Payload-class satellites include a variety of spacecraft equipped with specific instruments for various scientific and technological missions. These include communications satellites like Starlink; space stations such as the ISS; scientific satellites like the Hubble; Earth observation satellites from companies like Planet Labs, Umbra, and HawkEye 360; GPS; miniature CubeSats for education and research; and military/defense satellites.

Not visible in the next 10 days
Identifier
25673, 1999-018A
Orbit
GEO
Country
Flag of UnknownUnknown / EUTE
Related business
Manufacturer
Alcatel/Cannes
Mission
Non-operational Civil Communications
Bus & Motor
SPACEBUS 3000B2, S400
Mass
3,177 kg wet, 1,380 kg dry
Launch date (UTC)
1999-04-12 (27 years ago)
Launch vehicle
ATLAS IIAS
Launch site
Air Force Eastern Test Range (AFETR)
Object type
Payload
Rocket body
Debris
Shape & HBR
Box + 2 Pan, 14.5 m
Radar Cross Section
32.393 m², Large (>1 m²)

Expand to show TLE details & history
Last TLE update: 16 hours ago

TLE from 16 hours ago
0 EUTE 21A (EUTE W3)
1 25673U 99018A   25286.59614527 -.00000163  00000-0  00000-0 0  9993
2 25673   9.9998  52.9958 0007968 126.6221 245.7364  0.98431554 39133
Epoch: 2025-10-13T14:18Z
TLE epoch observation values (Epoch: 2025-10-13T14:18:26.951Z)
Latitude
2.11438°
Longitude
-171.93839°
Altitude
36,323.927 km
Speed
3.055 km/s
True Right ascension
04h 20m 16s
True Declination
2° 06' 44"
Sunlit
Object was in daylight at epoch
Visualization orbit readout
Latitude
Unknown
Longitude
Unknown
Altitude
Unknown
Speed
Unknown
Apparent Right ascension
Unknown
Apparent Declination
Unknown
Sunlit
N/A
Visualization observer readout
Local Sidereal Time
00:58:14
Azimuth
Unknown
Elevation
Unknown
Doppler factor
Unknown
Orbital elements
Apogee altitude
36,345.526 km
Perigee altitude
36,277.495 km
Semi-major axis
42,689.647 km
Eccentricity
0.0008
Inclination
9.9998°
RAAN
52.9958°
Arg. of periapsis
126.6221°
True anomaly
245.65319°
Mean anomaly
245.7364°
Eccentric anomaly
245.69479°
Mean motion
0.24607 °/min
Orbital period
1,463 mins
BSTAR
0
Loading maneuver chart data...
Computing Atmospheric mass density...
Loading historical data...
Loading historical data...
Loading historical data...
Loading historical data...
Loading historical data...
Loading historical data...
Loading historical data...
Other satellites on launch #18 in the year 1999 (1999-04-12 UTC)

Documentation

Showing up to 5 results
|